Weather History for Harrison, AR

Change the Weather History Date:

Tuesday, January 8, 2013

  Actual Average Record
Temperature  
Mean Temperature 43 °F 36 °F  
Max Temperature 57 °F 46 °F 72 °F (1939)
Min Temperature 29 °F 26 °F -5 °F (1970)
Degree Days  
Heating Degree Days 22 29  
Month to date heating degree days 241 232  
Since 1 July heating degree days 1649 1831  
Cooling Degree Days 0 0  
Month to date cooling degree days 0 0  
Year to date cooling degree days 0 0  
Moisture  
Dew Point 33 °F    
Average Humidity 62    
Maximum Humidity 78    
Minimum Humidity 46    
Precipitation  
Precipitation 0.01 in 0.08 in 2.00 in (1920)
Month to date precipitation 0.01 0.67  
Year to date precipitation 0.01 0.67  
Snow  
Snow 0.00 in 0.10 in 5.00 in (1944)
Month to date snowfall T 0.8  
Since 1 July snowfall 0.3 2.6  
Snow Depth 0.00 in    
Sea Level Pressure  
Sea Level Pressure 30.15 in    
Wind  
Wind Speed 8 mph (SE)    
Max Wind Speed 20 mph    
Max Gust Speed 23 mph    
Visibility 10 miles    
Events Rain    
T = Trace of Precipitation, MM = Missing Value Source: NWS Daily Summary

Daily Weather History Graph

Daily Weather History Graph

Search for Another Location

Airport:

Trip Planner

Search our weather history database for the weather conditions in past years. The results will help you decide how hot, cold, wet, or windy it might be!

Date:

Astronomy

Jan. 08, 2013 Rise Set
Actual Time 7:24 AM CST 5:14 PM CST
Civil Twilight 6:56 AM CST 5:43 PM CST
Nautical Twilight 6:24 AM CST 6:15 PM CST
Astronomical Twilight 5:53 AM CST 6:46 PM CST
Moon 3:58 AM CST (1/8) 2:17 PM CST (1/8)
Length of Visible Light 10h 47m
Length of Day
9h 50m
Waning Crescent, 13% of the Moon is Illuminated
Jan 8
Waning Crescent
Jan 11
New
Jan 18
First Quarter
Jan 26
Full
Feb 3
Last Quarter

Hourly Weather History & Observations

Time (CST) Temp. Windchill Dew Point Humidity Pressure Visibility Wind Dir Wind Speed Gust Speed Precip Events Conditions
12:53 AM 35.1 °F 28.6 °F 24.1 °F 64% 30.14 in 10.0 mi SSE 8.1 mph - N/A   Clear
1:53 AM 33.1 °F 26.1 °F 23.0 °F 66% 30.14 in 10.0 mi SSE 8.1 mph - N/A   Clear
2:53 AM 34.0 °F 29.8 °F 23.0 °F 64% 30.16 in 10.0 mi SSE 4.6 mph - N/A   Clear
3:53 AM 33.1 °F 26.1 °F 23.0 °F 66% 30.14 in 10.0 mi SE 8.1 mph - N/A   Clear
4:53 AM 33.1 °F 26.9 °F 21.9 °F 64% 30.14 in 10.0 mi South 6.9 mph - N/A   Clear
5:53 AM 30.9 °F 24.3 °F 21.9 °F 69% 30.16 in 10.0 mi SE 6.9 mph - N/A   Clear
6:53 AM 30.0 °F 24.1 °F 23.0 °F 75% 30.17 in 10.0 mi SE 5.8 mph - N/A   Scattered Clouds
7:53 AM 30.9 °F 24.3 °F 24.1 °F 76% 30.17 in 10.0 mi ESE 6.9 mph - N/A   Partly Cloudy
8:53 AM 36.0 °F 29.0 °F 26.1 °F 67% 30.19 in 10.0 mi SE 9.2 mph - N/A   Mostly Cloudy
9:53 AM 41.0 °F 35.2 °F 28.0 °F 60% 30.19 in 10.0 mi SE 9.2 mph - N/A   Mostly Cloudy
10:53 AM 46.9 °F - 28.9 °F 50% 30.17 in 10.0 mi SSE 12.7 mph - N/A   Overcast
11:53 AM 48.0 °F - 28.0 °F 46% 30.14 in 10.0 mi SSE 9.2 mph - N/A   Scattered Clouds
12:53 PM 54.0 °F - 33.1 °F 45% 30.10 in 10.0 mi SSE 11.5 mph - N/A   Scattered Clouds
1:53 PM 57.0 °F - 37.0 °F 47% 30.09 in 10.0 mi SSE 10.4 mph - N/A   Mostly Cloudy
2:53 PM 55.0 °F - 39.0 °F 55% 30.10 in 10.0 mi South 15.0 mph 19.6 mph N/A   Mostly Cloudy
3:53 PM 54.0 °F - 39.0 °F 57% 30.12 in 10.0 mi South 11.5 mph - N/A   Mostly Cloudy
4:09 PM 53.6 °F - 39.2 °F 58% 30.11 in 10.0 mi SSE 13.8 mph - N/A   Overcast
4:53 PM 53.1 °F - 39.0 °F 59% 30.13 in 10.0 mi SSE 9.2 mph - N/A   Overcast
5:53 PM 50.0 °F - 41.0 °F 71% 30.12 in 10.0 mi SE 8.1 mph - 0.00 in Rain Light Rain
6:39 PM 50.0 °F - 41.0 °F 71% 30.11 in 10.0 mi SE 6.9 mph - 0.00 in   Overcast
6:48 PM 50.0 °F - 41.0 °F 71% 30.11 in 10.0 mi SE 6.9 mph - 0.00 in   Overcast
6:53 PM 50.0 °F - 41.0 °F 71% 30.13 in 10.0 mi SE 6.9 mph - 0.00 in   Overcast
7:46 PM 50.0 °F - 37.4 °F 62% 30.14 in 10.0 mi SE 8.1 mph - N/A   Overcast
7:53 PM 50.0 °F - 37.9 °F 63% 30.16 in 10.0 mi SE 9.2 mph - N/A   Overcast
8:41 PM 46.4 °F 43.5 °F 39.2 °F 76% 30.14 in 10.0 mi ESE 5.8 mph - 0.00 in Rain Light Rain
8:53 PM 46.9 °F - 39.0 °F 74% 30.16 in 10.0 mi ESE 8.1 mph - 0.00 in Rain Light Rain
9:25 PM 46.4 °F - 39.2 °F 76% 30.16 in 10.0 mi Calm Calm - 0.00 in   Overcast
9:53 PM 46.4 °F 45.2 °F 39.2 °F 76% 30.15 in 10.0 mi ENE 3.5 mph - N/A   Overcast
10:53 PM 46.4 °F - 39.2 °F 76% 30.18 in 10.0 mi Calm Calm - N/A   Overcast
11:41 PM 46.4 °F - 39.2 °F 76% 30.20 in 10.0 mi Calm Calm - 0.01 in Rain Light Rain
11:53 PM 45.0 °F - 41.0 °F 86% 30.21 in 10.0 mi Calm Calm - 0.01 in   Overcast